SL-16 DEB, 35420

Orbit data source: Space-Track

SL-16 DEB, 35420 is space debris in SSO originally from a launch on Mon, 10 Dec 2001 UTC launched from the Tyuratam Missile And Space Complex (TTMTR). Debris objects in space refer to the collection of defunct objects orbiting the Earth. Examples of debris include non-operational satellites, rocket bodies, and fragments generated from explosions, collisions, or faulty payload assembly.

Loading next visibility...
Identifier
35420, 2001-056M
Orbit
SSO
Country
Flag of CISCIS
Related business
Manufacturer
Unknown
Mission
Spacecraft
Bus & Motor
Unknown
Mass
Unknown
Launch date (UTC)
2001-12-10 (24 years ago)
Launch vehicle
Unknown
Launch site
Tyuratam Missile And Space Complex (TTMTR)
Object type
Payload
Rocket body
Debris
Shape & HBR
Unknown shape, 0.1 m
Radar Cross Section
Small (<0.1 m²)

Expand to show TLE details & history
Last TLE update: 1 day ago

TLE from 1 day ago
0 SL-16 DEB
1 35420U 01056M   26149.36038655  .00000444  00000-0  48858-3 0  9992
2 35420  99.4506 284.2245 0022953 317.8744  99.5369 13.77701252224184
Epoch: 2026-05-29T08:38Z
TLE epoch observation values (Epoch: 2026-05-29T08:38:57.397Z)
Latitude
56.55998°
Longitude
-106.92856°
Altitude
984.267 km
Speed
7.363 km/s
True Right ascension
17h 58m 48s
True Declination
56° 24' 23"
Sunlit
Object was in daylight at epoch
Visualization orbit readout
Latitude
Unknown
Longitude
Unknown
Altitude
Unknown
Speed
Unknown
Apparent Right ascension
Unknown
Apparent Declination
Unknown
Sunlit
N/A
Visualization observer readout
Local Sidereal Time
05:29:30
Azimuth
Unknown
Elevation
Unknown
Doppler factor
Unknown
Orbital elements
Apogee altitude
986.168 km
Perigee altitude
952.438 km
Semi-major axis
7,347.44 km
Eccentricity
0.0023
Inclination
99.4506°
RAAN
284.2245°
Arg. of periapsis
317.8744°
True anomaly
99.79616°
Mean anomaly
99.5369°
Eccentric anomaly
99.66654°
Mean motion
3.44619 °/min
Orbital period
104.46 mins
BSTAR
0.00048858
Loading maneuver chart data...
Computing Atmospheric mass density...
Loading historical data...
Loading historical data...
Loading historical data...
Loading historical data...
Loading historical data...
Loading historical data...
Loading historical data...

Documentation

Showing up to 5 results
|